Location: Les Moreaux
(47.2278°N, 1.4966°E)
Time: 22:05:03
(UTC+00:00)

Lacrosse 4 Rocket - Pass Details

Date: 19 May 2025
Orbit: 513 x 576 km, 68.0° (Epoch: 18 June)

Event Time Altitude Azimuth Distance (km) Brightness Sun altitude
Rises 20:15:12 0° 239° (WSW) 2,631 5.1 -7.2°
Reaches altitude 10° 20:17:34 10° 251° (WSW) 1,755 4.3 -7.5°
Maximum altitude 20:20:59 28° 312° (NW) 1,002 3.7 -8.0°
Drops below altitude 10° 20:24:30 10° 14° (NNE) 1,793 4.3 -8.4°
Sets 20:26:56 0° 26° (NNE) 2,700 5.1 -8.7°
